Flag for Brunei Weather past 2 weeks in Bandar Seri Begawan, Brunei

Now
79 °F

Passing clouds.


Feels Like: 82 °F
Forecast: 78 / 91 °F
Wind: 1 mph from South

Location: Brunei Airport

Current Time: Jul 26, 2014 at 1:26:58 AM

Latest Report: Jul 26, 2014 at 12:30 AM


Visibility: 4 mi

Pressure: 29.86 "Hg

Humidity: 89%

Dew point: 75 °F

Location of Bandar Seri BegawanLocation

Historic Weather in Bandar Seri Begawan — Graph

°F

Bandar Seri Begawan temperature yesterday

Maximum temperature yesterday: 90 °F (at 10:30 AM)
Minimum temperature yesterday: 79 °F (at 2:30 AM)
Average temperature yesterday: 83 °F

Past Weeks' High & Low Weather Summary

 TemperatureHumidityPressure
High91 °F (Jul 11, 12:30 PM)100% (Jul 12, 4:00 PM)29.92 "Hg (Jul 12, 4:00 PM)
Low73 °F (Jul 14, 7:00 AM)49% (Jul 11, 1:30 PM)29.71 "Hg (Jul 22, 3:00 PM)
Average82 °F83%29.82 "Hg
* Reported Midnight between Jul 10 and Jul 11 — Jul 26 12:30 AM, Bandar Seri Begawan, Weather by CustomWeather, © 2014

Note: Actual official high and low records may vary slightly from our data, if they occured in-between our weather recording intervals... More about our weather records

Advertising

Bandar Seri Begawan weather history for previous 24 hours

 ConditionsComfort  
Time TempWeatherWind HumidityBarometerVisibility
12:30 AM
Jul 26
79 °FPassing clouds.1 mph89%29.86 "Hg4 mi
12:00 AM79 °FPassing clouds.1 mph94%29.89 "Hg4 mi
11:30 PM
Jul 25
79 °FPassing clouds.1 mph89%29.89 "Hg4 mi
11:00 PM81 °FPassing clouds.2 mph89%29.89 "Hg4 mi
10:30 PM79 °FPassing clouds.2 mph89%29.89 "Hg4 mi
10:00 PM79 °FPassing clouds.1 mph89%29.89 "Hg4 mi
9:30 PM81 °FPassing clouds.1 mph84%29.86 "Hg4 mi
9:00 PM81 °FPassing clouds.1 mph84%29.86 "Hg4 mi
8:30 PM81 °FPassing clouds.3 mph84%29.86 "Hg4 mi
8:00 PM81 °FPassing clouds.2 mph84%29.83 "Hg4 mi
7:30 PM81 °FPassing clouds.2 mph84%29.83 "Hg4 mi
7:00 PM82 °FPassing clouds.5 mph84%29.80 "Hg4 mi
6:30 PM84 °FPartly sunny.8 mph79%29.80 "Hg4 mi
6:00 PM86 °FPartly sunny.6 mph75%29.80 "Hg4 mi
5:30 PM88 °FPartly sunny.2 mph70%29.77 "Hg4 mi
5:00 PM84 °FPartly sunny.2 mph70%29.77 "Hg4 mi
4:30 PM81 °FThunderstorms. Broken clouds.8 mph74%29.77 "Hg4 mi
4:00 PM82 °FThunderstorms. Broken clouds.8 mph74%29.80 "Hg4 mi
3:30 PM90 °FThunderstorms. Broken clouds.8 mph71%29.77 "Hg4 mi
3:00 PM90 °FBroken clouds.8 mph71%29.77 "Hg6 mi
2:30 PM90 °FBroken clouds.7 mph71%29.80 "Hg6 mi
2:00 PM90 °FBroken clouds.8 mph71%29.80 "Hg6 mi
1:30 PM90 °FBroken clouds.8 mph71%29.80 "Hg6 mi
1:00 PM90 °FBroken clouds.5 mph71%29.83 "Hg6 mi
12:30 PM90 °FBroken clouds.6 mph71%29.83 "Hg6 mi
12:00 PM90 °FBroken clouds.6 mph71%29.86 "Hg6 mi
11:30 AM90 °FBroken clouds.5 mph67%29.86 "Hg6 mi
10:30 AM90 °FBroken clouds.3 mph71%29.86 "Hg5 mi
10:00 AM88 °FBroken clouds.5 mph75%29.86 "Hg5 mi
9:30 AM86 °FPartly sunny.3 mph79%29.89 "Hg5 mi
9:00 AM86 °FPartly sunny.5 mph79%29.89 "Hg5 mi
8:30 AM84 °FPartly sunny.3 mph84%29.86 "Hg5 mi
8:00 AM82 °FPartly sunny.3 mph89%29.86 "Hg5 mi
7:30 AM81 °FPartly sunny.3 mph94%29.86 "Hg4 mi
7:00 AM79 °FPartly sunny.3 mph100%29.86 "Hg4 mi
6:30 AM79 °FBroken clouds.2 mph100%29.86 "Hg4 mi
6:00 AM79 °FPassing clouds.2 mph100%29.86 "Hg4 mi
5:30 AM79 °FPassing clouds.2 mph100%29.86 "Hg6 mi
5:00 AM79 °FPartly cloudy.2 mph100%29.83 "Hg5 mi
4:30 AM79 °FPassing clouds.1 mph100%29.83 "Hg5 mi
4:00 AM79 °FPassing clouds.1 mph100%29.83 "Hg5 mi
3:30 AM79 °FPassing clouds.2 mph100%29.83 "Hg5 mi
3:00 AM79 °FPassing clouds.1 mph94%29.80 "Hg5 mi
2:30 AM79 °FPassing clouds.1 mph100%29.80 "Hg5 mi
2:00 AM81 °FPassing clouds.2 mph94%29.83 "Hg5 mi
1:30 AM81 °FPassing clouds.2 mph94%29.83 "Hg5 mi
1:00 AM81 °FPassing clouds.1 mph94%29.83 "Hg5 mi
Weather by CustomWeather, © 2014

See weather overviewHow to use our weather pages